User: anonymous   Login
Location: Armidale
(30.5016°S, 151.6662°E)
Time: 12:30:45
(UTC+10:00)
Language:

BEESAT 2 - Orbit

View from above orbital plane
View from above orbital plane
View from above satellite
View from above satellite

Ground track
Ground track

The orbit data is extracted from the following two-line orbital elements,

1 39136U 13015G   21206.36876438  .00001930  00000-0  10116-3 0  9993
2 39136  64.8751  85.5159 0022785 242.0355 117.8466 15.18877211456226
Epoch (UTC): 25 July 2021 08:51:01
Eccentricity: 0.0022785
inclination: 64.8751°
perigee height: 493 km
apogee height: 525 km
right ascension of ascending node: 85.5159°
argument of perigee: 242.0355°
revolutions per day: 15.18877211
mean anomaly at epoch: 117.8466°
orbit number at epoch: 45622

The dashed part of the orbit path shows where the satellite is in the earth's shadow,  

DLR